Regional Weather Roundup
Issued by NWS

Home | Current Version | Previous Version | Text Only | Print | Product List | Glossary On
Versions: 1 2 3 4 5 6 7 8 9 10 11 12 13 14 15 16 17 18 19 20 21 22 23 24 25 26 27 28 29 30 31 32 33 34 35 36 37 38 39 40 41 42 43 44 45 46 47 48 49 50
000
ASUS43 KLOT 202208
RWRIL

ILLINOIS REGIONAL WEATHER ROUNDUP
NATIONAL WEATHER SERVICE CHICAGO/ROMEOVILLE IL
500 PM CDT FRI APR 20 2018

NOTE: "FAIR" INDICATES FEW OR NO CLOUDS BELOW 12,000 FEET WITH NO
SIGNIFICANT WEATHER AND/OR OBSTRUCTIONS TO VISIBILITY.

* THESE STATIONS ARE NOT UNDER NWS QUALITY CONTROL. THEY ALSO MAY NOT
  REPORT WEATHER SUCH AS PRECIPITATION OR FOG.

ILZ001-002-007-009-015-016-024-202300-
NORTHWEST ILLINOIS

CITY           SKY/WX    TMP DP  RH WIND       PRES   REMARKS
MOLINE         FAIR      63  17  17 E10       30.39F
STERLING*      FAIR      61  22  22 VRB5      30.42F
SAVANNA*       FAIR      60  21  22 W7        30.41F
$$

ILZ003-004-008-010-011-017-018-202300-
NORTH CENTRAL ILLINOIS

CITY           SKY/WX    TMP DP  RH WIND       PRES   REMARKS
ROCKFORD       PTSUNNY   60  19  20 CALM      30.44F
FREEPORT*      FAIR      57  19  23 S5        30.44F
ROCHELLE*      FAIR      59  23  25 SE5       30.43F
DE KALB*       FAIR      58  20  23 N3        30.43F
PERU*          FAIR      63  18  17 SE3       30.42F
$$

ILZ005-006-012>014-019>023-202300-
NORTHEAST ILLINOIS

CITY           SKY/WX    TMP DP  RH WIND       PRES   REMARKS
CHICAGO-OHARE  FAIR      59  16  18 E13       30.44S
CHICAGO-MIDWAY FAIR      57  11  16 E12       30.46S
AURORA         FAIR      60  16  18 VRB3      30.43F
LANSING*       FAIR      56  24  29 NE7       30.47S
JOLIET*        FAIR      61  19  19 N3        30.43F
WAUKEGAN       FAIR      51  20  29 E9        30.46S
DUPAGE AIRPORT FAIR      61  13  15 CALM      30.42F
KANKAKEE*      FAIR      61  21  21 E3        30.44F
WHEELING       FAIR      58  17  20 E8        30.46F
MORRIS*        FAIR      61  19  20 NE3       30.42F
ROMEOVILLE*    FAIR      60  18  19 CALM      30.43F
$$

LMZ740>746-202300-
SOUTHERN LAKE MICHIGAN

STATION/POSITION SKY/WX   TEMP    WIND        PRES    VSBY  WAVE
                          AIR SEA DIR/SP/G                  HT/PER
                          (F)     (DEG/KT/KT) (MB)    (MI)  (FT/S)
HARRISON CRIB              46     100/ 10/ 10   N/A
BURNHAM HARBOR             45      80/  2/  3   N/A
CALUMET HARBOR             44      60/  7/  8 1031.2F
BURNS HARBOR               45      70/  6/  7 1032.5F
MICHIGAN CITY              41      40/  6/  6   N/A
$$

ILZ025>027-034>036-040-047-049-050-058-095>099-202300-
WEST-CENTRAL ILLINOIS

CITY           SKY/WX    TMP DP  RH WIND       PRES   REMARKS
QUINCY         CLOUDY    59  18  20 SE12      30.37F
GALESBURG*     FAIR      64  23  21 SE6       30.40F
MACOMB*        MOSUNNY   60  19  20 E12G17    30.41F
JACKSONVILLE*  CLOUDY    60  22  22 E8        30.38F
PITTSFIELD*    CLOUDY    60  22  23 E9        30.38F
$$

ILZ028>032-037-038-041>044-048-051>054-059>061-202300-
CENTRAL ILLINOIS

CITY           SKY/WX    TMP DP  RH WIND       PRES   REMARKS
PONTIAC        FAIR      61  18  18 E3        30.43F
BLOOMINGTON    FAIR      60  21  22 E13       30.42F
DECATUR        FAIR      62  17  17 E9        30.40F
PEORIA         FAIR      61  22  22 S6        30.41F
LACON*         FAIR      62  23  22 SE6       30.40F
LINCOLN*       FAIR      62  20  20 E7        30.41F
SPRINGFIELD    FAIR      63  19  18 E13       30.40F
TAYLORVILLE    FAIR      61  18  19 E12G17    30.40S
$$

ILZ033-039-045-046-055>057-062-063-202300-
EAST-CENTRAL ILLINOIS

CITY           SKY/WX    TMP DP  RH WIND       PRES   REMARKS
CHAMPAIGN      FAIR      61  20  20 E9        30.41F
DANVILLE*      FAIR      59  23  24 NE8       30.40F
RANTOUL*       FAIR      61  22  22 NE7       30.42F
MATTOON        FAIR      60  21  22 E7        30.39F
PARIS*         FAIR      59  26  27 E3        30.42F
$$

ILZ079-100>102-202300-
SOUTHWEST ILLINOIS

CITY           SKY/WX    TMP DP  RH WIND       PRES   REMARKS
ALTON          PTSUNNY   61  28  29 E13       30.39F
BELLEVILLE     CLOUDY    62  24  23 E8G16     30.37F
CAHOKIA*       MOSUNNY   62  23  22 E12       30.37F
SPARTA*        CLOUDY    61  29  30 E14       30.37F
$$

ILZ064>066-069>071-074>076-080>082-084>086-088>090-092>094-202300-
SOUTH-CENTRAL ILLINOIS

CITY           SKY/WX    TMP DP  RH WIND       PRES   REMARKS
CARBONDALE     FAIR      62  25  24 E13       30.36F
CAIRO*         FAIR      65  29  25 NE12      30.34F
EFFINGHAM*     FAIR      62  28  27 E5        30.41F
MARION         PTSUNNY   63  16  16 E8        30.37F
MT. VERNON     FAIR      61  25  25 NE13      30.39F
CENTRALIA*     MOSUNNY   63  26  24 E10       30.37F
SALEM*         FAIR      62  22  21 NE9G16    30.39F
METROPOLIS*    FAIR      64  26  23 E7        30.35F
$$

ILZ067-068-072-073-078-083-087-091-202300-
SOUTHEAST ILLINOIS

CITY           SKY/WX    TMP DP  RH WIND       PRES   REMARKS
LAWRENCEVILLE  FAIR      65  17  15 NE5       30.40S
FLORA*         FAIR      64  21  20 NE7       30.40F
FAIRFIELD*     FAIR      61  25  25 NE5       30.39F
HARRISBURG*    FAIR      62  31  30 CALM      30.38F
ROBINSON*      FAIR      62  25  24 NE9       30.41F
CARMI*         FAIR      64  26  24 E5        30.38F
$$

ABBREVIATIONS USED IN REMARKS
   TC - TEMPERATURE IN CELSIUS
  WCI - WIND CHILL INDEX
   HX - HEAT INDEX
  VSB - VISIBILITY
$$





USA.gov is the U.S. government's official web portal to all federal, state and local government web resources and services.